Hauptseite
METAR-TAF:

METAR-TAF

Flughäfen :

Emmen, Schweiz

Militärflugplatz Emmen

Breite: 47-05-32N, Länge: 8-18-16E, Höhe: 426 m

Beobachtung

Neuester Wetterbericht von vor 37 Minuten, um 07:50 UTC
Wind 1 kt aus unterschiedlichen Richtungen
Temperatur 4°C
Luftfeuchtigkeit 81%
Luftdruck 1024 hPa
Sichtweite 10 km oder mehr
Geschlossene Wolkendecke in der Höhe von 2100 ft

METAR: LSME 180750Z AUTO VRB01KT 9999NDV OVC021 04/01 Q1024 RMK

Zeit: 09:27 (08:27 UTC)


TAF: fehlend

Wetterbeobachtungen und Prognosen von mehr als 4000 Flughäfen (METAR und TAF Bericht).

Die verfügbaren Stationen werden durch gelbe und rote Markierungen auf der Karte dargestellt.

Führen Sie die Maus auf sie, um den Namen der Station zu sehen.

Darauf klicken, um die Beobachtung von Wetterbeobachtungen und Prognosen zu sehen.

Um die Karte zu ändern : klicken Sie auf den grünen Tasten mit einem schwarzen Kreuz Zum Vergrößern, auf den grünen Button mit einem Gedankenstrich zu verkleinern, oder auf die grünen Pfeile für benachbarte Karten.


METAR-TAF: